Year,Month,Day,Hour,Minute,Value (Times are PST for temperature in C)
2017,10,02,00,00,5.80
2017,10,02,00,01,5.80
2017,10,02,00,02,5.80
2017,10,02,00,03,5.80
2017,10,02,00,04,5.80
2017,10,02,00,05,5.80
2017,10,02,00,06,5.80
2017,10,02,00,07,5.80
2017,10,02,00,08,5.80
2017,10,02,00,09,5.80
2017,10,02,00,10,5.80
2017,10,02,00,11,5.80
2017,10,02,00,12,5.80
2017,10,02,00,13,5.80
2017,10,02,00,14,5.70
2017,10,02,00,15,5.70
2017,10,02,00,16,5.80
2017,10,02,00,17,5.80
2017,10,02,00,18,5.80
2017,10,02,00,19,5.90
2017,10,02,00,20,5.90
2017,10,02,00,21,5.90
2017,10,02,00,22,5.90
2017,10,02,00,23,5.90
2017,10,02,00,24,5.90
2017,10,02,00,25,5.90
2017,10,02,00,26,5.90
2017,10,02,00,27,5.90
2017,10,02,00,28,5.90
2017,10,02,00,29,5.90
2017,10,02,00,30,5.80
2017,10,02,00,31,5.80
2017,10,02,00,32,5.80
2017,10,02,00,33,5.80
2017,10,02,00,34,5.80
2017,10,02,00,35,5.80
2017,10,02,00,36,5.80
2017,10,02,00,37,5.80
2017,10,02,00,38,5.80
2017,10,02,00,39,5.70
2017,10,02,00,40,5.70
2017,10,02,00,41,5.70
2017,10,02,00,42,5.70
2017,10,02,00,43,5.70
2017,10,02,00,44,5.70
2017,10,02,00,45,5.70
2017,10,02,00,46,5.70
2017,10,02,00,47,5.70
2017,10,02,00,48,5.60
2017,10,02,00,49,5.60
2017,10,02,00,50,5.60
2017,10,02,00,51,5.60
2017,10,02,00,52,5.60
2017,10,02,00,53,5.50
2017,10,02,00,54,5.50
2017,10,02,00,55,5.50
2017,10,02,00,56,5.40
2017,10,02,00,57,5.40
2017,10,02,00,58,5.40
2017,10,02,00,59,5.40
2017,10,02,01,00,5.40
2017,10,02,01,01,5.40
2017,10,02,01,02,5.40
2017,10,02,01,03,5.40
2017,10,02,01,04,5.40
2017,10,02,01,05,5.40
2017,10,02,01,06,5.40
2017,10,02,01,07,5.30
2017,10,02,01,08,5.30
2017,10,02,01,09,5.30
2017,10,02,01,10,5.30
2017,10,02,01,11,5.30
2017,10,02,01,12,5.30
2017,10,02,01,13,5.30
2017,10,02,01,14,5.30
2017,10,02,01,15,5.30
2017,10,02,01,16,5.30
2017,10,02,01,17,5.30
2017,10,02,01,18,5.40
2017,10,02,01,19,5.40
2017,10,02,01,20,5.40
2017,10,02,01,21,5.50
2017,10,02,01,22,5.60
2017,10,02,01,23,5.60
2017,10,02,01,24,5.60
2017,10,02,01,25,5.60
2017,10,02,01,26,5.60
2017,10,02,01,27,5.60
2017,10,02,01,28,5.60
2017,10,02,01,29,5.50
2017,10,02,01,30,5.50
2017,10,02,01,31,5.50
2017,10,02,01,32,5.50
2017,10,02,01,33,5.40
2017,10,02,01,34,5.40
2017,10,02,01,35,5.40
2017,10,02,01,36,5.40
2017,10,02,01,37,5.30
2017,10,02,01,38,5.30
2017,10,02,01,39,5.30
2017,10,02,01,40,5.30
2017,10,02,01,41,5.30
2017,10,02,01,42,5.20
2017,10,02,01,43,5.20
2017,10,02,01,44,5.20
2017,10,02,01,45,5.20
2017,10,02,01,46,5.20
2017,10,02,01,47,5.20
2017,10,02,01,48,5.20
2017,10,02,01,49,5.10
2017,10,02,01,50,5.10
2017,10,02,01,51,5.10
2017,10,02,01,52,5.10
2017,10,02,01,53,5.10
2017,10,02,01,54,5.10
2017,10,02,01,55,5.10
2017,10,02,01,56,5.10
2017,10,02,01,57,5.10
2017,10,02,01,58,5.10
2017,10,02,01,59,5.00
2017,10,02,02,00,5.00
2017,10,02,02,01,4.90
2017,10,02,02,02,4.90
2017,10,02,02,03,4.90
2017,10,02,02,04,4.90
2017,10,02,02,05,4.90
2017,10,02,02,06,4.80
2017,10,02,02,07,4.80
2017,10,02,02,08,4.80
2017,10,02,02,09,4.80
2017,10,02,02,10,4.80
2017,10,02,02,11,4.70
2017,10,02,02,12,4.70
2017,10,02,02,13,4.70
2017,10,02,02,14,4.70
2017,10,02,02,15,4.70
2017,10,02,02,16,4.70
2017,10,02,02,17,4.60
2017,10,02,02,18,4.60
2017,10,02,02,19,4.60
2017,10,02,02,20,4.60
2017,10,02,02,21,4.60
2017,10,02,02,22,4.60
2017,10,02,02,23,4.60
2017,10,02,02,24,4.50
2017,10,02,02,25,4.50
2017,10,02,02,26,4.50
2017,10,02,02,27,4.50
2017,10,02,02,28,4.50
2017,10,02,02,29,4.50
2017,10,02,02,30,4.50
2017,10,02,02,31,4.50
2017,10,02,02,32,4.50
2017,10,02,02,33,4.50
2017,10,02,02,34,4.40
2017,10,02,02,35,4.40
2017,10,02,02,36,4.40
2017,10,02,02,37,4.40
2017,10,02,02,38,4.40
2017,10,02,02,39,4.30
2017,10,02,02,40,4.30
2017,10,02,02,41,4.30
2017,10,02,02,42,4.30
2017,10,02,02,43,4.30
2017,10,02,02,44,4.30
2017,10,02,02,45,4.30
2017,10,02,02,46,4.20
2017,10,02,02,47,4.20
2017,10,02,02,48,4.20
2017,10,02,02,49,4.20
2017,10,02,02,50,4.20
2017,10,02,02,51,4.20
2017,10,02,02,52,4.20
2017,10,02,02,53,4.10
2017,10,02,02,54,4.10
2017,10,02,02,55,4.10
2017,10,02,02,56,4.10
2017,10,02,02,57,4.10
2017,10,02,02,58,4.10
2017,10,02,02,59,4.10
2017,10,02,03,00,4.10
2017,10,02,03,01,4.10
2017,10,02,03,02,4.10
2017,10,02,03,03,4.10
2017,10,02,03,04,4.00
2017,10,02,03,05,4.00
2017,10,02,03,06,4.00
2017,10,02,03,07,4.00
2017,10,02,03,08,4.00
2017,10,02,03,09,4.00
2017,10,02,03,10,3.90
2017,10,02,03,11,3.90
2017,10,02,03,12,3.90
2017,10,02,03,13,3.90
2017,10,02,03,14,3.90
2017,10,02,03,15,3.90
2017,10,02,03,16,3.90
2017,10,02,03,17,3.90
2017,10,02,03,18,3.90
2017,10,02,03,19,3.90
2017,10,02,03,20,3.80
2017,10,02,03,21,3.80
2017,10,02,03,22,3.80
2017,10,02,03,23,3.90
2017,10,02,03,24,3.90
2017,10,02,03,25,3.90
2017,10,02,03,26,3.80
2017,10,02,03,27,3.80
2017,10,02,03,28,3.80
2017,10,02,03,29,3.80
2017,10,02,03,30,3.80
2017,10,02,03,31,3.70
2017,10,02,03,32,3.70
2017,10,02,03,33,3.70
2017,10,02,03,34,3.70
2017,10,02,03,35,3.70
2017,10,02,03,36,3.70
2017,10,02,03,37,3.70
2017,10,02,03,38,3.70
2017,10,02,03,39,3.60
2017,10,02,03,40,3.60
2017,10,02,03,41,3.60
2017,10,02,03,42,3.60
2017,10,02,03,43,3.60
2017,10,02,03,44,3.60
2017,10,02,03,45,3.60
2017,10,02,03,46,3.50
2017,10,02,03,47,3.50
2017,10,02,03,48,3.50
2017,10,02,03,49,3.50
2017,10,02,03,50,3.50
2017,10,02,03,51,3.50
2017,10,02,03,52,3.50
2017,10,02,03,53,3.40
2017,10,02,03,54,3.40
2017,10,02,03,55,3.40
2017,10,02,03,56,3.40
2017,10,02,03,57,3.40
2017,10,02,03,58,3.40
2017,10,02,03,59,3.40
2017,10,02,04,00,3.30
2017,10,02,04,01,3.30
2017,10,02,04,02,3.30
2017,10,02,04,03,3.30
2017,10,02,04,04,3.30
2017,10,02,04,05,3.30
2017,10,02,04,06,3.30
2017,10,02,04,07,3.30
2017,10,02,04,08,3.30
2017,10,02,04,09,3.30
2017,10,02,04,10,3.30
2017,10,02,04,11,3.30
2017,10,02,04,12,3.30
2017,10,02,04,13,3.30
2017,10,02,04,14,3.20
2017,10,02,04,15,3.20
2017,10,02,04,16,3.20
2017,10,02,04,17,3.20
2017,10,02,04,18,3.20
2017,10,02,04,19,3.20
2017,10,02,04,20,3.20
2017,10,02,04,21,3.20
2017,10,02,04,22,3.20
2017,10,02,04,23,3.20
2017,10,02,04,24,3.20
2017,10,02,04,25,3.20
2017,10,02,04,26,3.20
2017,10,02,04,27,3.10
2017,10,02,04,28,3.20
2017,10,02,04,29,3.20
2017,10,02,04,30,3.20
2017,10,02,04,31,3.20
2017,10,02,04,32,3.20
2017,10,02,04,33,3.20
2017,10,02,04,34,3.20
2017,10,02,04,35,3.20
2017,10,02,04,36,3.20
2017,10,02,04,37,3.20
2017,10,02,04,38,3.20
2017,10,02,04,39,3.20
2017,10,02,04,40,3.20
2017,10,02,04,41,3.20
2017,10,02,04,42,3.20
2017,10,02,04,43,3.20
2017,10,02,04,44,3.10
2017,10,02,04,45,3.10
2017,10,02,04,46,3.10
2017,10,02,04,47,3.10
2017,10,02,04,48,3.10
2017,10,02,04,49,3.10
2017,10,02,04,50,3.10
2017,10,02,04,51,3.10
2017,10,02,04,52,3.10
2017,10,02,04,53,3.10
2017,10,02,04,54,3.10
2017,10,02,04,55,3.10
2017,10,02,04,56,3.00
2017,10,02,04,57,3.00
2017,10,02,04,58,3.00
2017,10,02,04,59,2.90
2017,10,02,05,00,2.90
2017,10,02,05,01,2.90
2017,10,02,05,02,2.90
2017,10,02,05,03,2.80
2017,10,02,05,04,2.80
2017,10,02,05,05,2.80
2017,10,02,05,06,2.80
2017,10,02,05,07,2.80
2017,10,02,05,08,2.80
2017,10,02,05,09,2.70
2017,10,02,05,10,2.70
2017,10,02,05,11,2.70
2017,10,02,05,12,2.70
2017,10,02,05,13,2.70
2017,10,02,05,14,2.70
2017,10,02,05,15,2.70
2017,10,02,05,16,2.70
2017,10,02,05,17,2.70
2017,10,02,05,18,2.70
2017,10,02,05,19,2.70
2017,10,02,05,20,2.60
2017,10,02,05,21,2.60
2017,10,02,05,22,2.60
2017,10,02,05,23,2.70
2017,10,02,05,24,2.70
2017,10,02,05,25,2.70
2017,10,02,05,26,2.70
2017,10,02,05,27,2.70
2017,10,02,05,28,2.70
2017,10,02,05,29,2.70
2017,10,02,05,30,2.70
2017,10,02,05,31,2.70
2017,10,02,05,32,2.70
2017,10,02,05,33,2.70
2017,10,02,05,34,2.70
2017,10,02,05,35,2.70
2017,10,02,05,36,2.70
2017,10,02,05,37,2.80
2017,10,02,05,38,2.80
2017,10,02,05,39,2.80
2017,10,02,05,40,2.80
2017,10,02,05,41,2.80
2017,10,02,05,42,2.80
2017,10,02,05,43,2.80
2017,10,02,05,44,2.80
2017,10,02,05,45,2.80
2017,10,02,05,46,2.80
2017,10,02,05,47,2.80
2017,10,02,05,48,2.80
2017,10,02,05,49,2.80
2017,10,02,05,50,2.80
2017,10,02,05,51,2.80
2017,10,02,05,52,2.80
2017,10,02,05,53,2.80
2017,10,02,05,54,2.80
2017,10,02,05,55,2.70
2017,10,02,05,56,2.70
2017,10,02,05,57,2.70
2017,10,02,05,58,2.70
2017,10,02,05,59,2.70
2017,10,02,06,00,2.70
2017,10,02,06,01,2.80
2017,10,02,06,02,2.80
2017,10,02,06,03,2.80
2017,10,02,06,04,2.80
2017,10,02,06,05,2.80
2017,10,02,06,06,2.80
2017,10,02,06,07,2.80
2017,10,02,06,08,2.80
2017,10,02,06,09,2.80
2017,10,02,06,10,2.80
2017,10,02,06,11,2.80
2017,10,02,06,12,2.80
2017,10,02,06,13,2.80
2017,10,02,06,14,2.80
2017,10,02,06,15,2.70
2017,10,02,06,16,2.70
2017,10,02,06,17,2.70
2017,10,02,06,18,2.70
2017,10,02,06,19,2.70
2017,10,02,06,20,2.70
2017,10,02,06,21,2.70
2017,10,02,06,22,2.70
2017,10,02,06,23,2.70
2017,10,02,06,24,2.70
2017,10,02,06,25,2.70
2017,10,02,06,26,2.70
2017,10,02,06,27,2.60
2017,10,02,06,28,2.60
2017,10,02,06,29,2.60
2017,10,02,06,30,2.60
2017,10,02,06,31,2.60
2017,10,02,06,32,2.60
2017,10,02,06,33,2.50
2017,10,02,06,34,2.50
2017,10,02,06,35,2.50
2017,10,02,06,36,2.50
2017,10,02,06,37,2.40
2017,10,02,06,38,2.40
2017,10,02,06,39,2.40
2017,10,02,06,40,2.40
2017,10,02,06,41,2.40
2017,10,02,06,42,2.40
2017,10,02,06,43,2.40
2017,10,02,06,44,2.40
2017,10,02,06,45,2.40
2017,10,02,06,46,2.40
2017,10,02,06,47,2.40
2017,10,02,06,48,2.40
2017,10,02,06,49,2.40
2017,10,02,06,50,2.40
2017,10,02,06,51,2.40
2017,10,02,06,52,2.40
2017,10,02,06,53,2.40
2017,10,02,06,54,2.40
2017,10,02,06,55,2.40
2017,10,02,06,56,2.40
2017,10,02,06,57,2.40
2017,10,02,06,58,2.40
2017,10,02,06,59,2.40
2017,10,02,07,00,2.50
2017,10,02,07,01,2.50
2017,10,02,07,02,2.50
2017,10,02,07,03,2.50
2017,10,02,07,04,2.50
2017,10,02,07,05,2.60
2017,10,02,07,06,2.60
2017,10,02,07,07,2.60
2017,10,02,07,08,2.60
2017,10,02,07,09,2.60
2017,10,02,07,10,2.60
2017,10,02,07,11,2.60
2017,10,02,07,12,2.60
2017,10,02,07,13,2.60
2017,10,02,07,14,2.60
2017,10,02,07,15,2.60
2017,10,02,07,16,2.60
2017,10,02,07,17,2.60
2017,10,02,07,18,2.60
2017,10,02,07,19,2.60
2017,10,02,07,20,2.60
2017,10,02,07,21,2.60
2017,10,02,07,22,2.60
2017,10,02,07,23,2.60
2017,10,02,07,24,2.60
2017,10,02,07,25,2.60
2017,10,02,07,26,2.70
2017,10,02,07,27,2.70
2017,10,02,07,28,2.70
2017,10,02,07,29,2.70
2017,10,02,07,30,2.70
2017,10,02,07,31,2.70
2017,10,02,07,32,2.70
2017,10,02,07,33,2.80
2017,10,02,07,34,2.80
2017,10,02,07,35,2.80
2017,10,02,07,36,2.80
2017,10,02,07,37,2.80
2017,10,02,07,38,2.80
2017,10,02,07,39,2.80
2017,10,02,07,40,2.80
2017,10,02,07,41,2.80
2017,10,02,07,42,2.80
2017,10,02,07,43,2.80
2017,10,02,07,44,2.80
2017,10,02,07,45,2.80
2017,10,02,07,46,2.80
2017,10,02,07,47,2.90
2017,10,02,07,48,2.80
2017,10,02,07,49,2.90
2017,10,02,07,50,2.80
2017,10,02,07,51,2.80
2017,10,02,07,52,2.90
2017,10,02,07,53,2.90
2017,10,02,07,54,2.80
2017,10,02,07,55,2.80
2017,10,02,07,56,2.80
2017,10,02,07,57,2.80
2017,10,02,07,58,2.80
2017,10,02,07,59,2.80
2017,10,02,08,00,2.80
2017,10,02,08,01,2.80
2017,10,02,08,02,2.80
2017,10,02,08,03,2.80
2017,10,02,08,04,2.80
2017,10,02,08,05,2.80
2017,10,02,08,06,2.80
2017,10,02,08,07,2.80
2017,10,02,08,08,2.80
2017,10,02,08,09,2.80
2017,10,02,08,10,2.90
2017,10,02,08,11,2.90
2017,10,02,08,12,2.90
2017,10,02,08,13,2.90
2017,10,02,08,14,2.90
2017,10,02,08,15,2.90
2017,10,02,08,16,2.90
2017,10,02,08,17,2.90
2017,10,02,08,18,2.90
2017,10,02,08,19,2.90
2017,10,02,08,20,2.90
2017,10,02,08,21,2.90
2017,10,02,08,22,2.90
2017,10,02,08,23,3.00
2017,10,02,08,24,3.00
2017,10,02,08,25,3.10
2017,10,02,08,26,3.10
2017,10,02,08,27,3.10
2017,10,02,08,28,3.10
2017,10,02,08,29,3.20
2017,10,02,08,30,3.20
2017,10,02,08,31,3.20
2017,10,02,08,32,3.30
2017,10,02,08,33,3.30
2017,10,02,08,34,3.30
2017,10,02,08,35,3.30
2017,10,02,08,36,3.40
2017,10,02,08,37,3.40
2017,10,02,08,38,3.40
2017,10,02,08,39,3.50
2017,10,02,08,40,3.50
2017,10,02,08,41,3.60
2017,10,02,08,42,3.60
2017,10,02,08,43,3.70
2017,10,02,08,44,3.70
2017,10,02,08,45,3.80
2017,10,02,08,46,3.90
2017,10,02,08,47,3.90
2017,10,02,08,48,4.00
2017,10,02,08,49,4.10
2017,10,02,08,50,4.10
2017,10,02,08,51,4.20
2017,10,02,08,52,4.20
2017,10,02,08,53,4.30
2017,10,02,08,54,4.30
2017,10,02,08,55,4.40
2017,10,02,08,56,4.50
2017,10,02,08,57,4.50
2017,10,02,08,58,4.60
2017,10,02,08,59,4.70
2017,10,02,09,00,4.70
2017,10,02,09,01,4.70
2017,10,02,09,02,4.70
2017,10,02,09,03,4.80
2017,10,02,09,04,4.80
2017,10,02,09,05,4.80
2017,10,02,09,06,4.80
2017,10,02,09,07,4.80
2017,10,02,09,08,4.80
2017,10,02,09,09,4.90
2017,10,02,09,10,4.90
2017,10,02,09,11,4.90
2017,10,02,09,12,4.90
2017,10,02,09,13,5.00
2017,10,02,09,14,5.00
2017,10,02,09,15,5.00
2017,10,02,09,16,5.10
2017,10,02,09,17,5.10
2017,10,02,09,18,5.20
2017,10,02,09,19,5.30
2017,10,02,09,20,5.40
2017,10,02,09,21,5.50
2017,10,02,09,22,5.60
2017,10,02,09,23,5.70
2017,10,02,09,24,5.80
2017,10,02,09,25,5.90
2017,10,02,09,26,6.00
2017,10,02,09,27,6.10
2017,10,02,09,28,6.20
2017,10,02,09,29,6.30
2017,10,02,09,30,6.40
2017,10,02,09,31,6.40
2017,10,02,09,32,6.50
2017,10,02,09,33,6.50
2017,10,02,09,34,6.50
2017,10,02,09,35,6.60
2017,10,02,09,36,6.60
2017,10,02,09,37,6.70
2017,10,02,09,38,6.70
2017,10,02,09,39,6.80
2017,10,02,09,40,6.90
2017,10,02,09,41,6.90
2017,10,02,09,42,7.00
2017,10,02,09,43,7.20
2017,10,02,09,44,7.20
2017,10,02,09,45,7.40
2017,10,02,09,46,7.50
2017,10,02,09,47,7.50
2017,10,02,09,48,7.70
2017,10,02,09,49,7.70
2017,10,02,09,50,7.80
2017,10,02,09,51,7.90
2017,10,02,09,52,7.90
2017,10,02,09,53,8.00
2017,10,02,09,54,8.10
2017,10,02,09,55,8.20
2017,10,02,09,56,8.30
2017,10,02,09,57,8.40
2017,10,02,09,58,8.50
2017,10,02,09,59,8.50
2017,10,02,10,00,8.60
2017,10,02,10,01,8.60
2017,10,02,10,02,8.70
2017,10,02,10,03,8.80
2017,10,02,10,04,8.90
2017,10,02,10,05,9.00
2017,10,02,10,06,9.20
2017,10,02,10,07,9.20
2017,10,02,10,08,9.40
2017,10,02,10,09,9.50
2017,10,02,10,10,9.50
2017,10,02,10,11,9.60
2017,10,02,10,12,9.70
2017,10,02,10,13,9.80
2017,10,02,10,14,9.80
2017,10,02,10,15,9.80
2017,10,02,10,16,9.70
2017,10,02,10,17,9.70
2017,10,02,10,18,9.80
2017,10,02,10,19,9.80
2017,10,02,10,20,9.90
2017,10,02,10,21,10.00
2017,10,02,10,22,10.10
2017,10,02,10,23,10.20
2017,10,02,10,24,10.30
2017,10,02,10,25,10.40
2017,10,02,10,26,10.50
2017,10,02,10,27,10.60
2017,10,02,10,28,10.70
2017,10,02,10,29,10.90
2017,10,02,10,30,10.90
2017,10,02,10,31,10.90
2017,10,02,10,32,11.00
2017,10,02,10,33,11.00
2017,10,02,10,34,11.00
2017,10,02,10,35,11.00
2017,10,02,10,36,11.00
2017,10,02,10,37,11.00
2017,10,02,10,38,11.00
2017,10,02,10,39,11.00
2017,10,02,10,40,11.10
2017,10,02,10,41,11.10
2017,10,02,10,42,11.20
2017,10,02,10,43,11.20
2017,10,02,10,44,11.20
2017,10,02,10,45,11.30
2017,10,02,10,46,11.40
2017,10,02,10,47,11.50
2017,10,02,10,48,11.70
2017,10,02,10,49,11.80
2017,10,02,10,50,11.90
2017,10,02,10,51,12.10
2017,10,02,10,52,12.10
2017,10,02,10,53,12.20
2017,10,02,10,54,12.20
2017,10,02,10,55,12.30
2017,10,02,10,56,12.30
2017,10,02,10,57,12.30
2017,10,02,10,58,12.30
2017,10,02,10,59,12.30
2017,10,02,11,00,12.30
2017,10,02,11,01,12.30
2017,10,02,11,02,12.30
2017,10,02,11,03,12.30
2017,10,02,11,04,12.30
2017,10,02,11,05,12.30
2017,10,02,11,06,12.30
2017,10,02,11,07,12.30
2017,10,02,11,08,12.40
2017,10,02,11,09,12.50
2017,10,02,11,10,12.60
2017,10,02,11,11,12.70
2017,10,02,11,12,12.80
2017,10,02,11,13,12.90
2017,10,02,11,14,13.10
2017,10,02,11,15,13.20
2017,10,02,11,16,13.30
2017,10,02,11,17,13.50
2017,10,02,11,18,13.60
2017,10,02,11,19,13.70
2017,10,02,11,20,13.80
2017,10,02,11,21,13.80
2017,10,02,11,22,13.90
2017,10,02,11,23,13.80
2017,10,02,11,24,13.80
2017,10,02,11,25,13.80
2017,10,02,11,26,13.80
2017,10,02,11,27,13.90
2017,10,02,11,28,14.00
2017,10,02,11,29,14.10
2017,10,02,11,30,14.20
2017,10,02,11,31,14.20
2017,10,02,11,32,14.40
2017,10,02,11,33,14.50
2017,10,02,11,34,14.60
2017,10,02,11,35,14.80
2017,10,02,11,36,14.90
2017,10,02,11,37,14.90
2017,10,02,11,38,14.80
2017,10,02,11,39,14.70
2017,10,02,11,40,14.60
2017,10,02,11,41,14.50
2017,10,02,11,42,14.50
2017,10,02,11,43,14.50
2017,10,02,11,44,14.50
2017,10,02,11,45,14.70
2017,10,02,11,46,14.70
2017,10,02,11,47,14.80
2017,10,02,11,48,15.00
2017,10,02,11,49,15.00
2017,10,02,11,50,15.00
2017,10,02,11,51,15.10
2017,10,02,11,52,15.20
2017,10,02,11,53,15.20
2017,10,02,11,54,15.00
2017,10,02,11,55,15.00
2017,10,02,11,56,15.00
2017,10,02,11,57,15.00
2017,10,02,11,58,15.10
2017,10,02,11,59,15.30
2017,10,02,12,00,15.40
2017,10,02,12,01,15.50
2017,10,02,12,02,15.60
2017,10,02,12,03,15.60
2017,10,02,12,04,15.60
2017,10,02,12,05,15.60
2017,10,02,12,06,15.70
2017,10,02,12,07,15.70
2017,10,02,12,08,15.70
2017,10,02,12,09,15.70
2017,10,02,12,10,15.80
2017,10,02,12,11,15.80
2017,10,02,12,12,15.90
2017,10,02,12,13,16.00
2017,10,02,12,14,16.10
2017,10,02,12,15,16.20
2017,10,02,12,16,16.20
2017,10,02,12,17,16.20
2017,10,02,12,18,16.10
2017,10,02,12,19,16.10
2017,10,02,12,20,16.00
2017,10,02,12,21,16.00
2017,10,02,12,22,15.90
2017,10,02,12,23,15.90
2017,10,02,12,24,15.80
2017,10,02,12,25,15.80
2017,10,02,12,26,15.90
2017,10,02,12,27,15.90
2017,10,02,12,28,15.90
2017,10,02,12,29,15.90
2017,10,02,12,30,16.00
2017,10,02,12,31,16.00
2017,10,02,12,32,16.10
2017,10,02,12,33,16.10
2017,10,02,12,34,16.20
2017,10,02,12,35,16.20
2017,10,02,12,36,16.20
2017,10,02,12,37,16.20
2017,10,02,12,38,16.20
2017,10,02,12,39,16.30
2017,10,02,12,40,16.30
2017,10,02,12,41,16.50
2017,10,02,12,42,16.60
2017,10,02,12,43,16.60
2017,10,02,12,44,16.70
2017,10,02,12,45,16.70
2017,10,02,12,46,16.80
2017,10,02,12,47,16.90
2017,10,02,12,48,16.90
2017,10,02,12,49,16.90
2017,10,02,12,50,16.80
2017,10,02,12,51,16.80
2017,10,02,12,52,16.80
2017,10,02,12,53,16.70
2017,10,02,12,54,16.70
2017,10,02,12,55,16.70
2017,10,02,12,56,16.70
2017,10,02,12,57,16.70
2017,10,02,12,58,16.70
2017,10,02,12,59,16.70
2017,10,02,13,00,16.60
2017,10,02,13,01,16.60
2017,10,02,13,02,16.60
2017,10,02,13,03,16.70
2017,10,02,13,04,16.70
2017,10,02,13,05,16.70
2017,10,02,13,06,16.60
2017,10,02,13,07,16.60
2017,10,02,13,08,16.60
2017,10,02,13,09,16.70
2017,10,02,13,10,16.70
2017,10,02,13,11,16.80
2017,10,02,13,12,16.80
2017,10,02,13,13,16.80
2017,10,02,13,14,16.90
2017,10,02,13,15,16.90
2017,10,02,13,16,16.90
2017,10,02,13,17,17.00
2017,10,02,13,18,17.10
2017,10,02,13,19,17.20
2017,10,02,13,20,17.20
2017,10,02,13,21,17.30
2017,10,02,13,22,17.30
2017,10,02,13,23,17.40
2017,10,02,13,24,17.50
2017,10,02,13,25,17.60
2017,10,02,13,26,17.70
2017,10,02,13,27,17.80
2017,10,02,13,28,17.80
2017,10,02,13,29,17.80
2017,10,02,13,30,17.90
2017,10,02,13,31,17.90
2017,10,02,13,32,18.00
2017,10,02,13,33,18.00
2017,10,02,13,34,18.10
2017,10,02,13,35,18.10
2017,10,02,13,36,18.10
2017,10,02,13,37,18.20
2017,10,02,13,38,18.20
2017,10,02,13,39,18.10
2017,10,02,13,40,18.10
2017,10,02,13,41,18.10
2017,10,02,13,42,18.10
2017,10,02,13,43,18.10
2017,10,02,13,44,18.20
2017,10,02,13,45,18.20
2017,10,02,13,46,18.10
2017,10,02,13,47,18.10
2017,10,02,13,48,18.10
2017,10,02,13,49,18.10
2017,10,02,13,50,18.00
2017,10,02,13,51,18.00
2017,10,02,13,52,18.00
2017,10,02,13,53,18.00
2017,10,02,13,54,18.00
2017,10,02,13,55,18.00
2017,10,02,13,56,17.90
2017,10,02,13,57,17.80
2017,10,02,13,58,17.70
2017,10,02,13,59,17.70
2017,10,02,14,00,17.60
2017,10,02,14,01,17.60
2017,10,02,14,02,17.50
2017,10,02,14,03,17.50
2017,10,02,14,04,17.60
2017,10,02,14,05,17.60
2017,10,02,14,06,17.60
2017,10,02,14,07,17.60
2017,10,02,14,08,17.60
2017,10,02,14,09,17.70
2017,10,02,14,10,17.80
2017,10,02,14,11,17.90
2017,10,02,14,12,17.90
2017,10,02,14,13,17.90
2017,10,02,14,14,17.90
2017,10,02,14,15,17.90
2017,10,02,14,16,17.90
2017,10,02,14,17,18.00
2017,10,02,14,18,18.00
2017,10,02,14,19,18.10
2017,10,02,14,20,18.10
2017,10,02,14,21,18.10
2017,10,02,14,22,18.20
2017,10,02,14,23,18.30
2017,10,02,14,24,18.30
2017,10,02,14,25,18.40
2017,10,02,14,26,18.40
2017,10,02,14,27,18.40
2017,10,02,14,28,18.40
2017,10,02,14,29,18.50
2017,10,02,14,30,18.50
2017,10,02,14,31,18.40
2017,10,02,14,32,18.30
2017,10,02,14,33,18.30
2017,10,02,14,34,18.30
2017,10,02,14,35,18.20
2017,10,02,14,36,18.20
2017,10,02,14,37,18.30
2017,10,02,14,38,18.30
2017,10,02,14,39,18.30
2017,10,02,14,40,18.20
2017,10,02,14,41,18.20
2017,10,02,14,42,18.20
2017,10,02,14,43,18.20
2017,10,02,14,44,18.10
2017,10,02,14,45,18.00
2017,10,02,14,46,18.00
2017,10,02,14,47,18.00
2017,10,02,14,48,18.00
2017,10,02,14,49,18.00
2017,10,02,14,50,18.10
2017,10,02,14,51,18.10
2017,10,02,14,52,18.10
2017,10,02,14,53,18.10
2017,10,02,14,54,18.20
2017,10,02,14,55,18.20
2017,10,02,14,56,18.20
2017,10,02,14,57,18.20
2017,10,02,14,58,18.30
2017,10,02,14,59,18.30
2017,10,02,15,00,18.30
2017,10,02,15,01,18.30
2017,10,02,15,02,18.30
2017,10,02,15,03,18.30
2017,10,02,15,04,18.30
2017,10,02,15,05,18.30
2017,10,02,15,06,18.30
2017,10,02,15,07,18.30
2017,10,02,15,08,18.30
2017,10,02,15,09,18.20
2017,10,02,15,10,18.20
2017,10,02,15,11,18.20
2017,10,02,15,12,18.20
2017,10,02,15,13,18.10
2017,10,02,15,14,18.10
2017,10,02,15,15,18.10
2017,10,02,15,16,18.10
2017,10,02,15,17,18.10
2017,10,02,15,18,18.10
2017,10,02,15,19,18.10
2017,10,02,15,20,18.10
2017,10,02,15,21,18.10
2017,10,02,15,22,18.00
2017,10,02,15,23,18.00
2017,10,02,15,24,18.00
2017,10,02,15,25,18.00
2017,10,02,15,26,18.10
2017,10,02,15,27,18.10
2017,10,02,15,28,18.10
2017,10,02,15,29,18.00
2017,10,02,15,30,18.00
2017,10,02,15,31,17.90
2017,10,02,15,32,17.90
2017,10,02,15,33,17.90
2017,10,02,15,34,17.90
2017,10,02,15,35,17.90
2017,10,02,15,36,17.90
2017,10,02,15,37,17.90
2017,10,02,15,38,17.90
2017,10,02,15,39,17.90
2017,10,02,15,40,17.80
2017,10,02,15,41,17.80
2017,10,02,15,42,17.80
2017,10,02,15,43,17.70
2017,10,02,15,44,17.70
2017,10,02,15,45,17.70
2017,10,02,15,46,17.70
2017,10,02,15,47,17.70
2017,10,02,15,48,17.70
2017,10,02,15,49,17.70
2017,10,02,15,50,17.70
2017,10,02,15,51,17.70
2017,10,02,15,52,17.70
2017,10,02,15,53,17.80
2017,10,02,15,54,17.80
2017,10,02,15,55,17.80
2017,10,02,15,56,17.80
2017,10,02,15,57,17.80
2017,10,02,15,58,17.80
2017,10,02,15,59,17.80
2017,10,02,16,00,17.80
2017,10,02,16,01,17.80
2017,10,02,16,02,17.80
2017,10,02,16,03,17.80
2017,10,02,16,04,17.80
2017,10,02,16,05,17.80
2017,10,02,16,06,17.80
2017,10,02,16,07,17.80
2017,10,02,16,08,17.80
2017,10,02,16,09,17.70
2017,10,02,16,10,17.70
2017,10,02,16,11,17.70
2017,10,02,16,12,17.70
2017,10,02,16,13,17.70
2017,10,02,16,14,17.70
2017,10,02,16,15,17.70
2017,10,02,16,16,17.80
2017,10,02,16,17,17.80
2017,10,02,16,18,17.70
2017,10,02,16,19,17.70
2017,10,02,16,20,17.70
2017,10,02,16,21,17.70
2017,10,02,16,22,17.60
2017,10,02,16,23,17.60
2017,10,02,16,24,17.60
2017,10,02,16,25,17.60
2017,10,02,16,26,17.60
2017,10,02,16,27,17.60
2017,10,02,16,28,17.60
2017,10,02,16,29,17.60
2017,10,02,16,30,17.60
2017,10,02,16,31,17.60
2017,10,02,16,32,17.60
2017,10,02,16,33,17.60
2017,10,02,16,34,17.60
2017,10,02,16,35,17.60
2017,10,02,16,36,17.60
2017,10,02,16,37,17.60
2017,10,02,16,38,17.60
2017,10,02,16,39,17.70
2017,10,02,16,40,17.70
2017,10,02,16,41,17.70
2017,10,02,16,42,17.60
2017,10,02,16,43,17.60
2017,10,02,16,44,17.70
2017,10,02,16,45,17.70
2017,10,02,16,46,17.70
2017,10,02,16,47,17.60
2017,10,02,16,48,17.60
2017,10,02,16,49,17.50
2017,10,02,16,50,17.50
2017,10,02,16,51,17.50
2017,10,02,16,52,17.50
2017,10,02,16,53,17.50
2017,10,02,16,54,17.50
2017,10,02,16,55,17.50
2017,10,02,16,56,17.50
2017,10,02,16,57,17.60
2017,10,02,16,58,17.60
2017,10,02,16,59,17.60
2017,10,02,17,00,17.60
2017,10,02,17,01,17.70
2017,10,02,17,02,17.70
2017,10,02,17,03,17.70
2017,10,02,17,04,17.70
2017,10,02,17,05,17.70
2017,10,02,17,06,17.70
2017,10,02,17,07,17.80
2017,10,02,17,08,17.80
2017,10,02,17,09,17.80
2017,10,02,17,10,17.80
2017,10,02,17,11,17.80
2017,10,02,17,12,17.80
2017,10,02,17,13,17.80
2017,10,02,17,14,17.80
2017,10,02,17,15,17.80
2017,10,02,17,16,17.70
2017,10,02,17,17,17.80
2017,10,02,17,18,17.70
2017,10,02,17,19,17.70
2017,10,02,17,20,17.70
2017,10,02,17,21,17.70
2017,10,02,17,22,17.70
2017,10,02,17,23,17.60
2017,10,02,17,24,17.60
2017,10,02,17,25,17.50
2017,10,02,17,26,17.50
2017,10,02,17,27,17.50
2017,10,02,17,28,17.50
2017,10,02,17,29,17.50
2017,10,02,17,30,17.50
2017,10,02,17,31,17.50
2017,10,02,17,32,17.50
2017,10,02,17,33,17.50
2017,10,02,17,34,17.50
2017,10,02,17,35,17.50
2017,10,02,17,36,17.40
2017,10,02,17,37,17.40
2017,10,02,17,38,17.40
2017,10,02,17,39,17.30
2017,10,02,17,40,17.30
2017,10,02,17,41,17.30
2017,10,02,17,42,17.30
2017,10,02,17,43,17.20
2017,10,02,17,44,17.20
2017,10,02,17,45,17.20
2017,10,02,17,46,17.10